Time,TemperatureF,DewpointF,PressureIn,WindDirection,WindDirectionDegrees,WindSpeedMPH,WindSpeedGustMPH,Humidity,HourlyPrecipIn,Conditions,Clouds,dailyrainin,SolarRadiationWatts/m^2,SoftwareType,DateUTC
2013-09-16 00:03:00,62.6,42.6,30.18,East,90,1.6,4.6,48,0.00,RA,SCT,0.00,0.0,WeatherDisplay:10.37,2013-09-16 05:03:00,
2013-09-16 00:08:00,62.4,43.0,30.18,ENE,68,2.4,3.8,49,0.00,RA,SCT,0.00,0.0,WeatherDisplay:10.37,2013-09-16 05:08:00,
2013-09-16 00:13:00,62.4,43.0,30.18,North,0,2.4,4.6,49,0.00,CLR,SCT,0.00,0.0,WeatherDisplay:10.37,2013-09-16 05:13:00,
2013-09-16 00:18:00,62.2,42.3,30.18,East,90,2.9,3.5,48,0.00,CLR,SCT,0.00,0.0,WeatherDisplay:10.37,2013-09-16 05:18:00,
2013-09-16 00:23:00,62.2,42.3,30.18,East,90,2.2,5.8,48,0.00,CLR,SCT,0.00,0.0,WeatherDisplay:10.37,2013-09-16 05:23:00,
2013-09-16 00:28:00,62.2,41.7,30.18,East,90,1.6,4.6,47,0.00,CLR,SCT,0.00,0.0,WeatherDisplay:10.37,2013-09-16 05:28:00,
2013-09-16 00:33:00,62.2,41.7,30.18,ESE,112,4.0,5.8,47,0.00,CLR,SCT,0.00,0.0,WeatherDisplay:10.37,2013-09-16 05:33:00,
2013-09-16 00:38:00,62.2,41.7,30.18,ESE,112,2.6,5.8,47,0.00,CLR,SCT,0.00,0.0,WeatherDisplay:10.37,2013-09-16 05:38:00,
2013-09-16 00:43:00,62.1,41.6,30.15,ENE,68,4.3,5.8,47,0.00,CLR,SCT,0.00,0.0,WeatherDisplay:10.37,2013-09-16 05:43:00,
2013-09-16 00:48:00,62.1,41.6,30.15,ENE,68,2.9,4.6,47,0.00,CLR,SCT,0.00,0.0,WeatherDisplay:10.37,2013-09-16 05:48:00,
2013-09-16 00:53:00,61.9,41.4,30.15,NE,45,4.3,6.9,47,0.00,CLR,SCT,0.00,0.0,WeatherDisplay:10.37,2013-09-16 05:53:00,
2013-09-16 00:58:00,61.9,40.9,30.15,SE,135,4.5,5.8,46,0.00,CLR,SCT,0.00,0.0,WeatherDisplay:10.37,2013-09-16 05:58:00,
2013-09-16 01:03:00,61.7,40.7,30.15,East,90,3.1,5.8,46,0.00,CLR,SCT,0.00,0.0,WeatherDisplay:10.37,2013-09-16 06:03:00,
2013-09-16 01:08:00,61.7,40.7,30.15,East,90,4.3,5.8,46,0.00,CLR,SCT,0.00,0.0,WeatherDisplay:10.37,2013-09-16 06:08:00,
2013-09-16 01:13:00,61.7,40.7,30.18,East,90,3.3,6.9,46,0.00,CLR,SCT,0.00,0.0,WeatherDisplay:10.37,2013-09-16 06:13:00,
2013-09-16 01:18:00,61.7,40.7,30.18,ESE,112,3.3,4.6,46,0.00,CLR,SCT,0.00,0.0,WeatherDisplay:10.37,2013-09-16 06:18:00,
2013-09-16 01:23:00,61.5,40.5,30.18,ENE,68,3.8,5.8,46,0.00,CLR,SCT,0.00,0.0,WeatherDisplay:10.37,2013-09-16 06:23:00,
2013-09-16 01:28:00,61.5,40.5,30.18,East,90,2.9,3.5,46,0.00,CLR,SCT,0.00,0.0,WeatherDisplay:10.37,2013-09-16 06:28:00,
2013-09-16 01:33:00,61.5,41.1,30.18,ESE,112,2.0,4.6,47,0.00,CLR,SCT,0.00,0.0,WeatherDisplay:10.37,2013-09-16 06:33:00,
2013-09-16 01:38:00,61.3,40.9,30.18,ENE,68,3.1,4.6,47,0.00,CLR,SCT,0.00,0.0,WeatherDisplay:10.37,2013-09-16 06:38:00,
2013-09-16 01:43:00,61.2,40.2,30.18,East,90,4.0,5.8,46,0.00,CLR,SCT,0.00,0.0,WeatherDisplay:10.37,2013-09-16 06:43:00,
2013-09-16 01:48:00,61.0,40.0,30.18,East,90,3.6,6.4,46,0.00,CLR,SCT,0.00,0.0,WeatherDisplay:10.37,2013-09-16 06:48:00,
2013-09-16 01:53:00,61.0,40.0,30.18,East,90,3.1,4.6,46,0.00,CLR,SCT,0.00,0.0,WeatherDisplay:10.37,2013-09-16 06:53:00,
2013-09-16 01:58:00,60.6,40.3,30.18,ENE,68,2.6,4.6,47,0.00,CLR,SCT,0.00,0.0,WeatherDisplay:10.37,2013-09-16 06:58:00,
2013-09-16 02:03:00,60.4,40.1,30.18,ENE,68,3.1,3.5,47,0.00,CLR,SCT,0.00,0.0,WeatherDisplay:10.37,2013-09-16 07:03:00,
2013-09-16 02:08:00,60.3,39.9,30.18,East,90,2.9,3.5,47,0.00,CLR,SCT,0.00,0.0,WeatherDisplay:10.37,2013-09-16 07:08:00,
2013-09-16 02:13:00,60.1,39.8,30.15,East,90,2.9,4.6,47,0.00,CLR,SCT,0.00,0.0,WeatherDisplay:10.37,2013-09-16 07:13:00,
2013-09-16 02:18:00,59.9,40.1,30.15,ENE,68,2.9,4.6,48,0.00,CLR,SCT,0.00,0.0,WeatherDisplay:10.37,2013-09-16 07:18:00,
2013-09-16 02:23:00,59.7,40.0,30.15,ENE,68,2.0,3.5,48,0.00,CLR,SCT,0.00,0.0,WeatherDisplay:10.37,2013-09-16 07:23:00,
2013-09-16 02:28:00,59.5,39.8,30.15,ENE,68,1.6,2.9,48,0.00,CLR,SCT,0.00,0.0,WeatherDisplay:10.37,2013-09-16 07:28:00,
2013-09-16 02:33:00,59.4,39.7,30.15,ESE,112,2.0,2.9,48,0.00,CLR,SCT,0.00,0.0,WeatherDisplay:10.37,2013-09-16 07:33:00,
2013-09-16 02:38:00,59.2,39.5,30.15,NE,45,1.1,2.4,48,0.00,CLR,SCT,0.00,0.0,WeatherDisplay:10.37,2013-09-16 07:38:00,
2013-09-16 02:43:00,59.0,39.9,30.18,NNE,22,2.0,2.3,49,0.00,CLR,SCT,0.00,0.0,WeatherDisplay:10.37,2013-09-16 07:43:00,
2013-09-16 02:48:00,59.0,40.4,30.18,SE,135,0.9,1.1,50,0.00,CLR,SCT,0.00,0.0,WeatherDisplay:10.37,2013-09-16 07:48:00,
2013-09-16 02:53:00,59.0,40.4,30.18,ENE,68,0.0,2.3,50,0.00,CLR,SCT,0.00,0.0,WeatherDisplay:10.37,2013-09-16 07:53:00,
2013-09-16 02:58:00,58.8,40.2,30.18,ENE,68,1.6,3.5,50,0.00,CLR,SCT,0.00,0.0,WeatherDisplay:10.37,2013-09-16 07:58:00,
2013-09-16 03:03:00,58.8,40.7,30.18,ENE,68,1.6,2.3,51,0.00,CLR,SCT,0.00,0.0,WeatherDisplay:10.37,2013-09-16 08:03:00,
2013-09-16 03:08:00,58.8,40.7,30.18,East,90,0.0,1.1,51,0.00,CLR,SCT,0.00,0.0,WeatherDisplay:10.37,2013-09-16 08:08:00,
2013-09-16 03:13:00,58.6,41.1,30.18,NE,45,0.0,0.0,52,0.00,CLR,SCT,0.00,0.0,WeatherDisplay:10.37,2013-09-16 08:13:00,
2013-09-16 03:18:00,58.5,40.4,30.18,NE,45,0.0,0.0,51,0.00,CLR,SCT,0.00,0.0,WeatherDisplay:10.37,2013-09-16 08:18:00,
2013-09-16 03:23:00,58.5,40.9,30.18,NE,45,0.0,0.0,52,0.00,CLR,SCT,0.00,0.0,WeatherDisplay:10.37,2013-09-16 08:23:00,
2013-09-16 03:28:00,58.3,40.7,30.18,NE,45,0.0,0.0,52,0.00,CLR,SCT,0.00,0.0,WeatherDisplay:10.37,2013-09-16 08:28:00,
2013-09-16 03:33:00,58.1,40.6,30.18,East,90,0.0,0.0,52,0.00,CLR,SCT,0.00,0.0,WeatherDisplay:10.37,2013-09-16 08:33:00,
2013-09-16 03:38:00,58.3,40.7,30.18,East,90,0.0,0.0,52,0.00,CLR,SCT,0.00,0.0,WeatherDisplay:10.37,2013-09-16 08:38:00,
2013-09-16 03:43:00,58.3,41.2,30.15,East,90,1.6,2.3,53,0.00,CLR,SCT,0.00,0.0,WeatherDisplay:10.37,2013-09-16 08:43:00,
2013-09-16 03:48:00,58.3,41.2,30.15,ENE,68,0.0,1.1,53,0.00,CLR,SCT,0.00,0.0,WeatherDisplay:10.37,2013-09-16 08:48:00,
2013-09-16 03:53:00,58.3,41.7,30.15,East,90,1.1,2.3,54,0.00,CLR,SCT,0.00,0.0,WeatherDisplay:10.37,2013-09-16 08:53:00,
2013-09-16 03:58:00,58.5,42.3,30.15,ESE,112,1.4,2.3,55,0.00,CLR,SCT,0.00,0.0,WeatherDisplay:10.37,2013-09-16 08:58:00,
2013-09-16 04:03:00,58.5,42.3,30.15,ESE,112,1.4,2.3,55,0.00,CLR,SCT,0.00,0.0,WeatherDisplay:10.37,2013-09-16 09:03:00,
2013-09-16 04:08:00,58.6,42.5,30.15,ESE,112,1.1,2.3,55,0.00,CLR,SCT,0.00,0.0,WeatherDisplay:10.37,2013-09-16 09:08:00,
2013-09-16 04:13:00,58.6,42.5,30.18,ESE,112,1.1,1.1,55,0.00,CLR,SCT,0.00,0.0,WeatherDisplay:10.37,2013-09-16 09:13:00,
2013-09-16 04:18:00,58.6,42.5,30.18,ESE,112,0.9,2.3,55,0.00,CLR,SCT,0.00,0.0,WeatherDisplay:10.37,2013-09-16 09:18:00,
2013-09-16 04:23:00,58.6,42.5,30.18,East,90,1.4,2.3,55,0.00,CLR,SCT,0.00,0.0,WeatherDisplay:10.37,2013-09-16 09:23:00,
2013-09-16 04:28:00,58.5,42.3,30.18,East,90,0.0,1.1,55,0.00,CLR,SCT,0.00,0.0,WeatherDisplay:10.37,2013-09-16 09:28:00,
2013-09-16 04:33:00,58.5,42.3,30.18,NE,45,0.0,0.0,55,0.00,CLR,SCT,0.00,0.0,WeatherDisplay:10.37,2013-09-16 09:33:00,
2013-09-16 04:38:00,58.5,42.3,30.18,ENE,68,0.9,1.1,55,0.00,CLR,SCT,0.00,0.0,WeatherDisplay:10.37,2013-09-16 09:38:00,
2013-09-16 04:43:00,58.3,42.2,30.18,ENE,68,0.0,0.0,55,0.00,CLR,SCT,0.00,0.0,WeatherDisplay:10.37,2013-09-16 09:43:00,
2013-09-16 04:48:00,58.3,42.2,30.18,ENE,68,0.0,0.0,55,0.00,CLR,SCT,0.00,0.0,WeatherDisplay:10.37,2013-09-16 09:48:00,
2013-09-16 04:53:00,58.1,42.0,30.18,ENE,68,0.0,0.0,55,0.00,CLR,SCT,0.00,0.0,WeatherDisplay:10.37,2013-09-16 09:53:00,
2013-09-16 04:58:00,57.9,41.8,30.18,ENE,68,0.0,0.0,55,0.00,CLR,SCT,0.00,0.0,WeatherDisplay:10.37,2013-09-16 09:58:00,
2013-09-16 05:03:00,57.7,41.7,30.18,ENE,68,0.0,0.0,55,0.00,CLR,SCT,0.00,0.0,WeatherDisplay:10.37,2013-09-16 10:03:00,
2013-09-16 05:08:00,57.6,41.5,30.18,ENE,68,0.0,0.0,55,0.00,CLR,SCT,0.00,0.0,WeatherDisplay:10.37,2013-09-16 10:08:00,
2013-09-16 05:13:00,57.4,41.3,30.18,ENE,68,0.0,0.0,55,0.00,CLR,SCT,0.00,0.0,WeatherDisplay:10.37,2013-09-16 10:13:00,
2013-09-16 05:18:00,57.2,41.6,30.18,East,90,1.1,1.1,56,0.00,CLR,SCT,0.00,0.0,WeatherDisplay:10.37,2013-09-16 10:18:00,
2013-09-16 05:23:00,57.0,42.4,30.18,ENE,68,2.0,2.0,58,0.00,CLR,SCT,0.00,0.0,WeatherDisplay:10.37,2013-09-16 10:23:00,
2013-09-16 05:28:00,57.0,42.8,30.18,East,90,1.1,1.1,59,0.00,CLR,SCT,0.00,0.0,WeatherDisplay:10.37,2013-09-16 10:28:00,
2013-09-16 05:33:00,57.0,43.3,30.18,ENE,68,1.4,2.9,60,0.00,CLR,SCT,0.00,0.0,WeatherDisplay:10.37,2013-09-16 10:33:00,
2013-09-16 05:38:00,57.2,44.3,30.18,NNE,22,2.4,2.4,62,0.00,CLR,SCT,0.00,0.0,WeatherDisplay:10.37,2013-09-16 10:38:00,
2013-09-16 05:43:00,57.2,44.3,30.21,East,90,1.4,2.3,62,0.00,CLR,SCT,0.00,0.0,WeatherDisplay:10.37,2013-09-16 10:43:00,
2013-09-16 05:48:00,57.0,44.1,30.21,ENE,68,0.9,2.3,62,0.00,CLR,SCT,0.00,0.0,WeatherDisplay:10.37,2013-09-16 10:48:00,
2013-09-16 05:53:00,57.0,44.5,30.21,ENE,68,1.1,2.3,63,0.00,CLR,SCT,0.00,0.0,WeatherDisplay:10.37,2013-09-16 10:53:00,
2013-09-16 05:58:00,57.0,44.5,30.21,East,90,0.0,1.1,63,0.00,CLR,SCT,0.00,0.0,WeatherDisplay:10.37,2013-09-16 10:58:00,
2013-09-16 06:03:00,56.8,44.4,30.21,East,90,0.0,1.1,63,0.00,CLR,SCT,0.00,0.0,WeatherDisplay:10.37,2013-09-16 11:03:00,
2013-09-16 06:08:00,56.8,44.8,30.21,NNE,22,1.4,1.4,64,0.00,CLR,SCT,0.00,0.0,WeatherDisplay:10.37,2013-09-16 11:08:00,
2013-09-16 06:13:00,56.7,44.2,30.21,East,90,1.1,1.1,63,0.00,CLR,SCT,0.00,0.0,WeatherDisplay:10.37,2013-09-16 11:13:00,
2013-09-16 06:18:00,56.7,44.2,30.21,East,90,1.1,2.3,63,0.00,CLR,SCT,0.00,0.0,WeatherDisplay:10.37,2013-09-16 11:18:00,
2013-09-16 06:23:00,56.7,44.2,30.21,NNE,22,0.0,1.1,63,0.00,CLR,SCT,0.00,0.0,WeatherDisplay:10.37,2013-09-16 11:23:00,
2013-09-16 06:28:00,56.5,44.0,30.21,North,0,1.4,2.3,63,0.00,CLR,SCT,0.00,0.0,WeatherDisplay:10.37,2013-09-16 11:28:00,
2013-09-16 06:33:00,56.5,44.9,30.21,NNW,338,1.1,1.1,65,0.00,CLR,SCT,0.00,0.0,WeatherDisplay:10.37,2013-09-16 11:33:00,
2013-09-16 06:38:00,56.5,45.7,30.21,North,0,2.0,2.6,67,0.00,CLR,SCT,0.00,0.0,WeatherDisplay:10.37,2013-09-16 11:38:00,
2013-09-16 06:43:00,56.3,45.5,30.21,East,90,1.4,2.3,67,0.00,CLR,SCT,0.00,0.0,WeatherDisplay:10.37,2013-09-16 11:43:00,
2013-09-16 06:48:00,56.3,45.9,30.21,ENE,68,1.1,2.3,68,0.00,CLR,SCT,0.00,0.0,WeatherDisplay:10.37,2013-09-16 11:48:00,
2013-09-16 06:53:00,56.3,45.9,30.21,NE,45,1.1,2.3,68,0.00,CLR,SCT,0.00,0.0,WeatherDisplay:10.37,2013-09-16 11:53:00,
2013-09-16 06:58:00,56.3,45.9,30.21,ENE,68,2.0,2.3,68,0.00,CLR,SCT,0.00,0.0,WeatherDisplay:10.37,2013-09-16 11:58:00,
2013-09-16 07:03:00,56.3,46.3,30.21,ESE,112,1.6,2.6,69,0.00,OVC,SCT,0.00,0.0,WeatherDisplay:10.37,2013-09-16 12:03:00,
2013-09-16 07:08:00,56.1,46.5,30.21,ENE,68,2.0,3.5,70,0.00,OVC,SCT,0.00,0.0,WeatherDisplay:10.37,2013-09-16 12:08:00,
2013-09-16 07:13:00,56.1,46.5,30.21,East,90,2.2,3.8,70,0.00,OVC,SCT,0.00,0.0,WeatherDisplay:10.37,2013-09-16 12:13:00,
2013-09-16 07:18:00,56.1,46.5,30.21,ENE,68,3.3,4.6,70,0.00,OVC,SCT,0.00,0.0,WeatherDisplay:10.37,2013-09-16 12:18:00,
2013-09-16 07:23:00,55.9,46.3,30.21,East,90,2.6,3.5,70,0.00,OVC,SCT,0.00,0.0,WeatherDisplay:10.37,2013-09-16 12:23:00,
2013-09-16 07:28:00,55.9,46.3,30.21,ENE,68,2.0,4.7,70,0.00,OVC,SCT,0.00,0.0,WeatherDisplay:10.37,2013-09-16 12:28:00,
2013-09-16 07:33:00,55.9,46.3,30.21,ENE,68,2.9,4.6,70,0.00,OVC,SCT,0.00,0.0,WeatherDisplay:10.37,2013-09-16 12:33:00,
2013-09-16 07:38:00,55.9,46.7,30.21,East,90,1.6,3.5,71,0.00,OVC,SCT,0.00,0.0,WeatherDisplay:10.37,2013-09-16 12:38:00,
2013-09-16 07:43:00,55.8,46.5,30.21,ESE,112,2.0,3.5,71,0.00,OVC,SCT,0.00,0.0,WeatherDisplay:10.37,2013-09-16 12:43:00,
2013-09-16 07:48:00,55.8,46.5,30.21,ENE,68,2.0,2.4,71,0.00,OVC,SCT,0.00,0.0,WeatherDisplay:10.37,2013-09-16 12:48:00,
2013-09-16 07:53:00,55.9,47.0,30.21,ENE,68,2.4,4.6,72,0.00,OVC,SCT,0.00,0.0,WeatherDisplay:10.37,2013-09-16 12:53:00,
2013-09-16 07:58:00,56.3,47.8,30.24,East,90,1.6,3.5,73,0.00,OVC,SCT,0.00,0.0,WeatherDisplay:10.37,2013-09-16 12:58:00,
2013-09-16 08:03:00,56.7,48.5,30.24,ENE,68,3.6,5.8,74,0.00,OVC,SCT,0.00,0.0,WeatherDisplay:10.37,2013-09-16 13:03:00,
2013-09-16 08:08:00,56.8,48.3,30.24,East,90,2.4,4.6,73,0.00,OVC,SCT,0.00,0.0,WeatherDisplay:10.37,2013-09-16 13:08:00,
2013-09-16 08:13:00,57.2,48.6,30.24,ESE,112,2.9,4.6,73,0.00,OVC,SCT,0.00,0.0,WeatherDisplay:10.37,2013-09-16 13:13:00,
2013-09-16 08:18:00,57.6,48.6,30.24,East,90,2.9,4.6,72,0.00,OVC,SCT,0.00,0.0,WeatherDisplay:10.37,2013-09-16 13:18:00,
2013-09-16 08:23:00,58.1,49.1,30.24,ENE,68,3.3,4.6,72,0.00,OVC,SCT,0.00,0.0,WeatherDisplay:10.37,2013-09-16 13:23:00,
2013-09-16 08:28:00,58.3,48.9,30.24,ENE,68,3.1,4.7,71,0.00,OVC,SCT,0.00,0.0,WeatherDisplay:10.37,2013-09-16 13:28:00,
2013-09-16 08:33:00,58.6,48.9,30.24,East,90,3.6,4.6,70,0.00,OVC,SCT,0.00,0.0,WeatherDisplay:10.37,2013-09-16 13:33:00,
2013-09-16 08:38:00,58.6,48.5,30.24,ENE,68,2.6,5.8,69,0.00,OVC,SCT,0.00,0.0,WeatherDisplay:10.37,2013-09-16 13:38:00,
2013-09-16 08:43:00,58.8,48.3,30.24,ESE,112,2.4,4.0,68,0.00,OVC,SCT,0.00,0.0,WeatherDisplay:10.37,2013-09-16 13:43:00,
2013-09-16 08:48:00,59.2,48.6,30.24,ESE,112,3.3,4.6,68,0.00,OVC,SCT,0.00,0.0,WeatherDisplay:10.37,2013-09-16 13:48:00,
2013-09-16 08:53:00,59.5,48.6,30.24,ESE,112,2.9,3.6,67,0.00,OVC,SCT,0.00,0.0,WeatherDisplay:10.37,2013-09-16 13:53:00,
2013-09-16 08:58:00,59.9,48.5,30.24,ENE,68,3.8,5.8,66,0.00,OVC,SCT,0.00,0.0,WeatherDisplay:10.37,2013-09-16 13:58:00,
2013-09-16 09:03:00,60.3,48.0,30.24,ENE,68,4.0,4.0,64,0.00,OVC,SCT,0.00,0.0,WeatherDisplay:10.37,2013-09-16 14:03:00,
2013-09-16 09:08:00,60.4,48.2,30.24,ESE,112,4.3,5.8,64,0.00,OVC,SCT,0.00,0.0,WeatherDisplay:10.37,2013-09-16 14:08:00,
2013-09-16 09:13:00,61.0,48.3,30.24,ESE,112,3.3,4.6,63,0.00,OVC,SCT,0.00,0.0,WeatherDisplay:10.37,2013-09-16 14:13:00,
2013-09-16 09:18:00,61.0,46.1,30.24,ESE,112,4.3,5.8,58,0.00,OVC,SCT,0.00,0.0,WeatherDisplay:10.37,2013-09-16 14:18:00,
2013-09-16 09:23:00,61.3,46.9,30.24,ENE,68,3.3,4.6,59,0.00,OVC,SCT,0.00,0.0,WeatherDisplay:10.37,2013-09-16 14:23:00,
2013-09-16 09:28:00,61.5,46.1,30.24,ENE,68,3.1,4.6,57,0.00,OVC,SCT,0.00,0.0,WeatherDisplay:10.37,2013-09-16 14:28:00,
2013-09-16 09:33:00,61.9,46.5,30.24,NE,45,3.6,4.6,57,0.00,OVC,SCT,0.00,0.0,WeatherDisplay:10.37,2013-09-16 14:33:00,
2013-09-16 09:38:00,62.2,45.9,30.24,ESE,112,5.4,6.9,55,0.00,OVC,SCT,0.00,0.0,WeatherDisplay:10.37,2013-09-16 14:38:00,
2013-09-16 09:43:00,62.8,45.9,30.24,ENE,68,4.7,5.8,54,0.00,OVC,SCT,0.00,0.0,WeatherDisplay:10.37,2013-09-16 14:43:00,
2013-09-16 09:48:00,62.8,43.9,30.24,ENE,68,6.0,10.4,50,0.00,OVC,SCT,0.00,0.0,WeatherDisplay:10.37,2013-09-16 14:48:00,
2013-09-16 09:53:00,62.8,43.3,30.24,East,90,6.4,10.4,49,0.00,OVC,SCT,0.00,100.0,WeatherDisplay:10.37,2013-09-16 14:53:00,
2013-09-16 09:58:00,63.0,43.5,30.21,ESE,112,6.0,8.1,49,0.00,OVC,SCT,0.00,0.0,WeatherDisplay:10.37,2013-09-16 14:58:00,
2013-09-16 10:03:00,62.6,42.6,30.21,ESE,112,6.9,8.1,48,0.00,OVC,SCT,0.00,0.0,WeatherDisplay:10.37,2013-09-16 15:03:00,
2013-09-16 10:08:00,62.8,42.8,30.21,ENE,68,3.6,5.8,48,0.00,OVC,SCT,0.00,0.0,WeatherDisplay:10.37,2013-09-16 15:08:00,
2013-09-16 10:13:00,63.0,43.5,30.24,East,90,5.4,5.8,49,0.00,OVC,SCT,0.00,100.0,WeatherDisplay:10.37,2013-09-16 15:13:00,
2013-09-16 10:18:00,63.3,42.7,30.24,East,90,6.0,8.1,47,0.00,OVC,SCT,0.00,100.0,WeatherDisplay:10.37,2013-09-16 15:18:00,
2013-09-16 10:23:00,63.0,41.8,30.24,East,90,5.9,9.2,46,0.00,OVC,SCT,0.00,0.0,WeatherDisplay:10.37,2013-09-16 15:23:00,
2013-09-16 10:28:00,63.0,42.4,30.24,SE,135,4.9,6.4,47,0.00,OVC,SCT,0.00,100.0,WeatherDisplay:10.37,2013-09-16 15:28:00,
2013-09-16 10:33:00,62.6,40.9,30.24,East,90,6.4,10.4,45,0.00,OVC,SCT,0.00,0.0,WeatherDisplay:10.37,2013-09-16 15:33:00,
2013-09-16 10:38:00,62.2,41.7,30.24,East,90,6.4,8.1,47,0.00,OVC,SCT,0.00,0.0,WeatherDisplay:10.37,2013-09-16 15:38:00,
2013-09-16 10:43:00,61.9,41.4,30.24,NE,45,4.5,7.4,47,0.00,OVC,SCT,0.00,0.0,WeatherDisplay:10.37,2013-09-16 15:43:00,
2013-09-16 10:48:00,61.7,41.8,30.24,ESE,112,5.9,7.8,48,0.00,OVC,SCT,0.00,0.0,WeatherDisplay:10.37,2013-09-16 15:48:00,
2013-09-16 10:53:00,61.5,41.6,30.24,East,90,3.3,6.9,48,0.00,OVC,SCT,0.00,0.0,WeatherDisplay:10.37,2013-09-16 15:53:00,
2013-09-16 10:58:00,61.3,42.0,30.24,East,90,3.3,5.8,49,0.00,OVC,SCT,0.00,0.0,WeatherDisplay:10.37,2013-09-16 15:58:00,
2013-09-16 11:03:00,61.3,42.5,30.24,ESE,112,4.0,6.2,50,0.00,OVC,SCT,0.00,0.0,WeatherDisplay:10.37,2013-09-16 16:03:00,
2013-09-16 11:08:00,61.3,42.5,30.24,SSE,158,4.5,5.9,50,0.00,OVC,SCT,0.00,0.0,WeatherDisplay:10.37,2013-09-16 16:08:00,
2013-09-16 11:13:00,61.2,42.9,30.24,ESE,112,4.3,4.6,51,0.00,OVC,SCT,0.00,0.0,WeatherDisplay:10.37,2013-09-16 16:13:00,
2013-09-16 11:18:00,61.3,43.6,30.24,WSW,248,3.6,4.6,52,0.00,OVC,SCT,0.00,0.0,WeatherDisplay:10.37,2013-09-16 16:18:00,
2013-09-16 11:23:00,61.3,43.6,30.24,ENE,68,4.3,6.9,52,0.00,OVC,SCT,0.00,0.0,WeatherDisplay:10.37,2013-09-16 16:23:00,
2013-09-16 11:28:00,61.3,43.6,30.24,ESE,112,3.1,4.6,52,0.00,OVC,SCT,0.00,0.0,WeatherDisplay:10.37,2013-09-16 16:28:00,
2013-09-16 11:33:00,61.3,43.6,30.24,East,90,4.0,6.9,52,0.00,OVC,SCT,0.00,0.0,WeatherDisplay:10.37,2013-09-16 16:33:00,
2013-09-16 11:38:00,61.3,43.6,30.24,East,90,2.6,4.6,52,0.00,OVC,SCT,0.00,0.0,WeatherDisplay:10.37,2013-09-16 16:38:00,
2013-09-16 11:43:00,61.5,43.7,30.24,East,90,4.7,5.8,52,0.00,OVC,SCT,0.00,0.0,WeatherDisplay:10.37,2013-09-16 16:43:00,
2013-09-16 11:48:00,61.7,43.9,30.24,ESE,112,3.3,6.7,52,0.00,OVC,SCT,0.00,0.0,WeatherDisplay:10.37,2013-09-16 16:48:00,
2013-09-16 11:53:00,61.9,44.6,30.24,ESE,112,5.4,5.8,53,0.00,OVC,SCT,0.00,0.0,WeatherDisplay:10.37,2013-09-16 16:53:00,
2013-09-16 11:58:00,62.2,44.4,30.24,ENE,68,6.0,10.4,52,0.00,OVC,SCT,0.00,0.0,WeatherDisplay:10.37,2013-09-16 16:58:00,
2013-09-16 12:03:00,62.2,43.9,30.24,ESE,112,4.0,7.4,51,0.00,OVC,SCT,0.00,0.0,WeatherDisplay:10.37,2013-09-16 17:03:00,
2013-09-16 12:08:00,62.2,43.9,30.24,East,90,3.8,5.8,51,0.00,OVC,SCT,0.00,0.0,WeatherDisplay:10.37,2013-09-16 17:08:00,
2013-09-16 12:13:00,62.4,43.5,30.21,SE,135,5.6,9.2,50,0.00,OVC,SCT,0.00,100.0,WeatherDisplay:10.37,2013-09-16 17:13:00,
2013-09-16 12:18:00,62.4,43.0,30.21,ENE,68,4.9,6.9,49,0.00,OVC,SCT,0.00,100.0,WeatherDisplay:10.37,2013-09-16 17:18:00,
2013-09-16 12:23:00,62.6,43.2,30.21,ESE,112,5.6,8.1,49,0.00,OVC,SCT,0.00,100.0,WeatherDisplay:10.37,2013-09-16 17:23:00,
2013-09-16 12:28:00,62.6,42.6,30.24,ESE,112,6.4,8.1,48,0.00,OVC,SCT,0.00,0.0,WeatherDisplay:10.37,2013-09-16 17:28:00,
2013-09-16 12:33:00,62.6,42.6,30.24,ESE,112,6.0,8.1,48,0.00,OVC,SCT,0.00,100.0,WeatherDisplay:10.37,2013-09-16 17:33:00,
2013-09-16 12:38:00,63.1,44.2,30.24,ESE,112,3.3,5.8,50,0.00,OVC,SCT,0.00,100.0,WeatherDisplay:10.37,2013-09-16 17:38:00,
2013-09-16 12:43:00,63.7,44.2,30.24,NNE,22,4.0,6.9,49,0.00,OVC,SCT,0.00,100.0,WeatherDisplay:10.37,2013-09-16 17:43:00,
2013-09-16 12:48:00,64.2,44.6,30.24,ESE,112,4.5,5.8,49,0.00,OVC,SCT,0.00,300.0,WeatherDisplay:10.37,2013-09-16 17:48:00,
2013-09-16 12:53:00,64.6,42.7,30.24,East,90,7.8,9.2,45,0.00,OVC,SCT,0.00,200.0,WeatherDisplay:10.37,2013-09-16 17:53:00,
2013-09-16 12:58:00,64.8,42.9,30.24,ENE,68,5.9,8.1,45,0.00,OVC,SCT,0.00,300.0,WeatherDisplay:10.37,2013-09-16 17:58:00,
2013-09-16 13:03:00,66.0,45.2,30.24,ESE,112,4.9,9.8,47,0.00,OVC,SCT,0.00,300.0,WeatherDisplay:10.37,2013-09-16 18:03:00,
2013-09-16 13:08:00,66.4,43.8,30.24,East,90,4.9,5.8,44,0.00,OVC,SCT,0.00,300.0,WeatherDisplay:10.37,2013-09-16 18:08:00,
2013-09-16 13:13:00,66.4,43.2,30.24,ESE,112,5.6,8.1,43,0.00,OVC,SCT,0.00,300.0,WeatherDisplay:10.37,2013-09-16 18:13:00,
2013-09-16 13:18:00,66.0,42.3,30.24,NNE,22,5.6,6.9,42,0.00,OVC,SCT,0.00,100.0,WeatherDisplay:10.37,2013-09-16 18:18:00,
2013-09-16 13:23:00,65.8,42.7,30.24,ESE,112,4.5,7.8,43,0.00,OVC,SCT,0.00,200.0,WeatherDisplay:10.37,2013-09-16 18:23:00,
2013-09-16 13:28:00,65.8,42.7,30.21,East,90,4.7,8.1,43,0.00,OVC,SCT,0.00,200.0,WeatherDisplay:10.37,2013-09-16 18:28:00,
2013-09-16 13:33:00,66.2,43.0,30.21,SW,225,5.4,8.1,43,0.00,OVC,SCT,0.00,100.0,WeatherDisplay:10.37,2013-09-16 18:33:00,
2013-09-16 13:38:00,66.0,42.9,30.21,ESE,112,4.5,6.4,43,0.00,OVC,SCT,0.00,100.0,WeatherDisplay:10.37,2013-09-16 18:38:00,
2013-09-16 13:43:00,66.4,43.8,30.21,ENE,68,4.7,7.6,44,0.00,OVC,SCT,0.00,200.0,WeatherDisplay:10.37,2013-09-16 18:43:00,
2013-09-16 13:48:00,66.4,43.2,30.21,SSE,158,5.9,8.1,43,0.00,OVC,SCT,0.00,0.0,WeatherDisplay:10.37,2013-09-16 18:48:00,
2013-09-16 13:53:00,66.2,43.0,30.21,ESE,112,4.7,6.9,43,0.00,OVC,SCT,0.00,0.0,WeatherDisplay:10.37,2013-09-16 18:53:00,
2013-09-16 13:58:00,66.0,42.9,30.21,East,90,4.5,8.1,43,0.00,OVC,SCT,0.00,0.0,WeatherDisplay:10.37,2013-09-16 18:58:00,
2013-09-16 14:03:00,65.8,42.7,30.21,ESE,112,4.0,5.8,43,0.00,OVC,SCT,0.00,100.0,WeatherDisplay:10.37,2013-09-16 19:03:00,
2013-09-16 14:08:00,66.2,43.0,30.21,ESE,112,5.6,5.8,43,0.00,OVC,SCT,0.00,100.0,WeatherDisplay:10.37,2013-09-16 19:08:00,
2013-09-16 14:13:00,66.4,43.2,30.21,NE,45,6.4,8.1,43,0.00,OVC,SCT,0.00,100.0,WeatherDisplay:10.37,2013-09-16 19:13:00,
2013-09-16 14:18:00,66.7,43.5,30.21,ESE,112,4.9,9.2,43,0.00,OVC,SCT,0.00,200.0,WeatherDisplay:10.37,2013-09-16 19:18:00,
2013-09-16 14:23:00,67.3,42.8,30.21,ESE,112,5.6,8.1,41,0.00,OVC,SCT,0.00,200.0,WeatherDisplay:10.37,2013-09-16 19:23:00,
2013-09-16 14:28:00,67.8,43.9,30.18,ENE,68,5.4,5.8,42,0.00,OVC,SCT,0.00,200.0,WeatherDisplay:10.37,2013-09-16 19:28:00,
2013-09-16 14:33:00,68.2,42.9,30.18,ESE,112,5.4,5.4,40,0.00,OVC,SCT,0.00,200.0,WeatherDisplay:10.37,2013-09-16 19:33:00,
2013-09-16 14:38:00,68.0,42.1,30.18,ESE,112,6.7,8.1,39,0.00,OVC,SCT,0.00,100.0,WeatherDisplay:10.37,2013-09-16 19:38:00,
2013-09-16 14:43:00,67.8,42.6,30.18,East,90,6.0,8.7,40,0.00,OVC,SCT,0.00,100.0,WeatherDisplay:10.37,2013-09-16 19:43:00,
2013-09-16 14:48:00,67.3,41.5,30.18,ENE,68,5.9,6.0,39,0.00,OVC,SCT,0.00,100.0,WeatherDisplay:10.37,2013-09-16 19:48:00,
2013-09-16 14:53:00,66.9,41.1,30.18,NNE,22,4.9,8.1,39,0.00,OVC,SCT,0.00,100.0,WeatherDisplay:10.37,2013-09-16 19:53:00,
2013-09-16 14:58:00,66.9,41.8,30.18,ENE,68,4.7,6.9,40,0.00,OVC,SCT,0.00,100.0,WeatherDisplay:10.37,2013-09-16 19:58:00,
2013-09-16 15:03:00,66.9,42.4,30.18,ENE,68,4.7,6.9,41,0.00,OVC,SCT,0.00,100.0,WeatherDisplay:10.37,2013-09-16 20:03:00,
2013-09-16 15:08:00,66.9,41.8,30.18,ESE,112,6.4,8.1,40,0.00,OVC,SCT,0.00,100.0,WeatherDisplay:10.37,2013-09-16 20:08:00,
2013-09-16 15:13:00,66.9,42.4,30.18,ESE,112,4.9,5.8,41,0.00,OVC,SCT,0.00,100.0,WeatherDisplay:10.37,2013-09-16 20:13:00,
2013-09-16 15:18:00,66.9,42.4,30.18,ENE,68,4.3,5.8,41,0.00,OVC,SCT,0.00,100.0,WeatherDisplay:10.37,2013-09-16 20:18:00,
2013-09-16 15:23:00,66.7,42.3,30.18,ENE,68,4.9,5.8,41,0.00,OVC,SCT,0.00,100.0,WeatherDisplay:10.37,2013-09-16 20:23:00,
2013-09-16 15:28:00,66.6,41.5,30.18,ESE,112,5.9,8.1,40,0.00,OVC,SCT,0.00,100.0,WeatherDisplay:10.37,2013-09-16 20:28:00,
2013-09-16 15:33:00,66.6,42.1,30.18,ESE,112,4.5,5.8,41,0.00,OVC,SCT,0.00,100.0,WeatherDisplay:10.37,2013-09-16 20:33:00,
2013-09-16 15:38:00,66.6,42.1,30.18,East,90,4.5,6.9,41,0.00,OVC,SCT,0.00,100.0,WeatherDisplay:10.37,2013-09-16 20:38:00,
2013-09-16 15:43:00,66.6,42.1,30.18,ESE,112,4.5,6.9,41,0.00,OVC,SCT,0.00,100.0,WeatherDisplay:10.37,2013-09-16 20:43:00,
2013-09-16 15:48:00,66.4,42.0,30.18,ENE,68,4.9,9.2,41,0.00,OVC,SCT,0.00,0.0,WeatherDisplay:10.37,2013-09-16 20:48:00,
2013-09-16 15:53:00,66.4,42.0,30.18,ENE,68,4.3,4.7,41,0.00,OVC,SCT,0.00,0.0,WeatherDisplay:10.37,2013-09-16 20:53:00,
2013-09-16 15:58:00,66.2,41.2,30.18,East,90,5.6,8.1,40,0.00,OVC,SCT,0.00,0.0,WeatherDisplay:10.37,2013-09-16 20:58:00,
2013-09-16 16:03:00,66.4,42.0,30.18,ENE,68,5.4,7.8,41,0.00,OVC,SCT,0.00,0.0,WeatherDisplay:10.37,2013-09-16 21:03:00,
2013-09-16 16:08:00,66.2,41.8,30.18,ENE,68,3.8,9.2,41,0.00,OVC,SCT,0.00,0.0,WeatherDisplay:10.37,2013-09-16 21:08:00,
2013-09-16 16:13:00,66.2,42.4,30.15,ESE,112,4.3,5.8,42,0.00,OVC,SCT,0.00,100.0,WeatherDisplay:10.37,2013-09-16 21:13:00,
2013-09-16 16:18:00,66.6,43.4,30.15,East,90,4.0,5.8,43,0.00,OVC,SCT,0.00,0.0,WeatherDisplay:10.37,2013-09-16 21:18:00,
2013-09-16 16:23:00,66.6,42.7,30.15,ESE,112,4.0,7.4,42,0.00,OVC,SCT,0.00,0.0,WeatherDisplay:10.37,2013-09-16 21:23:00,
2013-09-16 16:28:00,66.4,42.0,30.15,SE,135,5.9,6.9,41,0.00,OVC,SCT,0.00,0.0,WeatherDisplay:10.37,2013-09-16 21:28:00,
2013-09-16 16:33:00,66.0,42.3,30.15,East,90,4.7,7.4,42,0.00,OVC,SCT,0.00,0.0,WeatherDisplay:10.37,2013-09-16 21:33:00,
2013-09-16 16:38:00,65.8,42.7,30.15,ENE,68,5.6,8.1,43,0.00,OVC,SCT,0.00,0.0,WeatherDisplay:10.37,2013-09-16 21:38:00,
2013-09-16 16:43:00,65.7,42.5,30.15,ESE,112,5.4,9.2,43,0.00,OVC,SCT,0.00,0.0,WeatherDisplay:10.37,2013-09-16 21:43:00,
2013-09-16 16:48:00,65.5,42.4,30.15,ENE,68,4.7,5.8,43,0.00,OVC,SCT,0.00,0.0,WeatherDisplay:10.37,2013-09-16 21:48:00,
2013-09-16 16:53:00,65.5,42.4,30.15,NE,45,5.6,8.1,43,0.00,OVC,SCT,0.00,0.0,WeatherDisplay:10.37,2013-09-16 21:53:00,
2013-09-16 16:58:00,65.5,42.4,30.12,ENE,68,4.5,5.6,43,0.00,OVC,SCT,0.00,0.0,WeatherDisplay:10.37,2013-09-16 21:58:00,
2013-09-16 17:03:00,65.3,42.2,30.12,East,90,4.3,5.8,43,0.00,OVC,SCT,0.00,0.0,WeatherDisplay:10.37,2013-09-16 22:03:00,
2013-09-16 17:08:00,65.1,42.1,30.12,ENE,68,5.4,8.1,43,0.00,OVC,SCT,0.00,0.0,WeatherDisplay:10.37,2013-09-16 22:08:00,
2013-09-16 17:13:00,65.1,42.1,30.12,ESE,112,6.2,9.2,43,0.00,OVC,SCT,0.00,0.0,WeatherDisplay:10.37,2013-09-16 22:13:00,
2013-09-16 17:18:00,65.1,42.1,30.12,ENE,68,5.9,6.9,43,0.00,OVC,SCT,0.00,0.0,WeatherDisplay:10.37,2013-09-16 22:18:00,
2013-09-16 17:23:00,65.1,42.7,30.12,South,180,4.3,4.6,44,0.00,OVC,SCT,0.00,0.0,WeatherDisplay:10.37,2013-09-16 22:23:00,
2013-09-16 17:28:00,65.1,42.7,30.09,ESE,112,5.6,6.9,44,0.00,OVC,SCT,0.00,0.0,WeatherDisplay:10.37,2013-09-16 22:28:00,
2013-09-16 17:33:00,65.1,42.7,30.09,East,90,4.5,5.8,44,0.00,OVC,SCT,0.00,0.0,WeatherDisplay:10.37,2013-09-16 22:33:00,
2013-09-16 17:38:00,64.9,42.5,30.09,ESE,112,4.9,6.2,44,0.00,OVC,SCT,0.00,0.0,WeatherDisplay:10.37,2013-09-16 22:38:00,
2013-09-16 17:43:00,64.8,42.3,30.12,ENE,68,3.6,8.1,44,0.00,OVC,SCT,0.00,0.0,WeatherDisplay:10.37,2013-09-16 22:43:00,
2013-09-16 17:48:00,64.4,42.0,30.12,ESE,112,4.3,4.6,44,0.00,OVC,SCT,0.00,0.0,WeatherDisplay:10.37,2013-09-16 22:48:00,
2013-09-16 17:53:00,64.4,42.0,30.12,ESE,112,4.5,5.8,44,0.00,OVC,SCT,0.00,0.0,WeatherDisplay:10.37,2013-09-16 22:53:00,
2013-09-16 17:58:00,64.2,42.4,30.12,ENE,68,5.4,6.9,45,0.00,OVC,SCT,0.00,0.0,WeatherDisplay:10.37,2013-09-16 22:58:00,
2013-09-16 18:03:00,63.9,42.1,30.12,SSE,158,5.6,5.9,45,0.00,OVC,SCT,0.00,0.0,WeatherDisplay:10.37,2013-09-16 23:03:00,
2013-09-16 18:08:00,63.7,41.9,30.12,ESE,112,3.1,4.0,45,0.00,OVC,SCT,0.00,0.0,WeatherDisplay:10.37,2013-09-16 23:08:00,
2013-09-16 18:13:00,63.5,41.8,30.12,ESE,112,5.9,6.9,45,0.00,OVC,SCT,0.00,0.0,WeatherDisplay:10.37,2013-09-16 23:13:00,
2013-09-16 18:18:00,63.5,41.8,30.12,ESE,112,4.5,5.8,45,0.00,OVC,SCT,0.00,0.0,WeatherDisplay:10.37,2013-09-16 23:18:00,
2013-09-16 18:23:00,63.3,41.6,30.12,ESE,112,3.3,5.8,45,0.00,OVC,SCT,0.00,0.0,WeatherDisplay:10.37,2013-09-16 23:23:00,
2013-09-16 18:28:00,63.1,41.4,30.12,SE,135,3.8,4.7,45,0.00,OVC,SCT,0.00,0.0,WeatherDisplay:10.37,2013-09-16 23:28:00,
2013-09-16 18:33:00,63.1,41.4,30.12,ESE,112,4.3,8.1,45,0.00,OVC,SCT,0.00,0.0,WeatherDisplay:10.37,2013-09-16 23:33:00,
2013-09-16 18:38:00,63.0,41.3,30.12,SSE,158,4.0,5.8,45,0.00,OVC,SCT,0.00,0.0,WeatherDisplay:10.37,2013-09-16 23:38:00,
2013-09-16 18:43:00,63.0,41.8,30.12,East,90,4.0,4.6,46,0.00,OVC,SCT,0.00,0.0,WeatherDisplay:10.37,2013-09-16 23:43:00,
2013-09-16 18:48:00,62.8,41.7,30.12,ENE,68,5.4,8.1,46,0.00,OVC,SCT,0.00,0.0,WeatherDisplay:10.37,2013-09-16 23:48:00,
2013-09-16 18:53:00,62.8,41.7,30.12,ESE,112,4.3,5.8,46,0.00,OVC,SCT,0.00,0.0,WeatherDisplay:10.37,2013-09-16 23:53:00,
2013-09-16 18:58:00,62.8,42.2,30.12,SSE,158,4.9,8.1,47,0.00,OVC,SCT,0.00,0.0,WeatherDisplay:10.37,2013-09-16 23:58:00,
2013-09-16 19:03:00,62.6,42.1,30.12,ESE,112,4.3,5.8,47,0.00,OVC,SCT,0.00,0.0,WeatherDisplay:10.37,2013-09-17 00:03:00,
2013-09-16 19:08:00,62.4,41.9,30.12,ESE,112,4.7,6.0,47,0.00,OVC,SCT,0.00,0.0,WeatherDisplay:10.37,2013-09-17 00:08:00,
2013-09-16 19:13:00,62.4,42.5,30.12,ESE,112,4.9,5.8,48,0.00,OVC,SCT,0.00,0.0,WeatherDisplay:10.37,2013-09-17 00:13:00,
2013-09-16 19:18:00,62.2,42.3,30.12,ESE,112,3.8,5.8,48,0.00,OVC,SCT,0.00,0.0,WeatherDisplay:10.37,2013-09-17 00:18:00,
2013-09-16 19:23:00,62.1,42.1,30.12,ENE,68,4.7,4.7,48,0.00,OVC,SCT,0.00,0.0,WeatherDisplay:10.37,2013-09-17 00:23:00,
2013-09-16 19:28:00,62.1,42.1,30.12,ENE,68,2.6,4.3,48,0.00,OVC,SCT,0.00,0.0,WeatherDisplay:10.37,2013-09-17 00:28:00,
2013-09-16 19:33:00,62.1,42.1,30.12,ENE,68,2.9,3.5,48,0.00,OVC,SCT,0.00,0.0,WeatherDisplay:10.37,2013-09-17 00:33:00,
2013-09-16 19:38:00,61.9,42.5,30.12,SSE,158,4.9,6.2,49,0.00,OVC,SCT,0.00,0.0,WeatherDisplay:10.37,2013-09-17 00:38:00,
2013-09-16 19:43:00,61.7,42.3,30.12,ESE,112,3.3,5.8,49,0.00,OVC,SCT,0.00,0.0,WeatherDisplay:10.37,2013-09-17 00:43:00,
2013-09-16 19:48:00,61.7,42.3,30.12,ESE,112,5.6,8.1,49,0.00,OVC,SCT,0.00,0.0,WeatherDisplay:10.37,2013-09-17 00:48:00,
2013-09-16 19:53:00,61.5,42.2,30.12,SSE,158,2.9,5.8,49,0.00,OVC,SCT,0.00,0.0,WeatherDisplay:10.37,2013-09-17 00:53:00,
2013-09-16 19:58:00,61.5,42.7,30.12,ESE,112,4.0,4.6,50,0.00,OVC,SCT,0.00,0.0,WeatherDisplay:10.37,2013-09-17 00:58:00,
2013-09-16 20:03:00,61.3,42.5,30.12,ESE,112,4.0,5.8,50,0.00,CLR,SCT,0.00,0.0,WeatherDisplay:10.37,2013-09-17 01:03:00,
2013-09-16 20:08:00,61.3,42.5,30.12,East,90,4.9,8.1,50,0.00,CLR,SCT,0.00,0.0,WeatherDisplay:10.37,2013-09-17 01:08:00,
2013-09-16 20:13:00,61.3,42.5,30.12,ENE,68,4.0,8.7,50,0.00,CLR,SCT,0.00,0.0,WeatherDisplay:10.37,2013-09-17 01:13:00,
2013-09-16 20:18:00,61.3,42.0,30.12,East,90,3.8,8.1,49,0.00,CLR,SCT,0.00,0.0,WeatherDisplay:10.37,2013-09-17 01:18:00,
2013-09-16 20:23:00,61.3,42.5,30.12,East,90,3.6,4.6,50,0.00,CLR,SCT,0.00,0.0,WeatherDisplay:10.37,2013-09-17 01:23:00,
2013-09-16 20:28:00,61.2,42.4,30.12,South,180,2.9,3.5,50,0.00,CLR,SCT,0.00,0.0,WeatherDisplay:10.37,2013-09-17 01:28:00,
2013-09-16 20:33:00,61.0,42.7,30.12,ESE,112,3.1,4.6,51,0.00,CLR,SCT,0.00,0.0,WeatherDisplay:10.37,2013-09-17 01:33:00,
2013-09-16 20:38:00,60.8,42.5,30.12,ESE,112,3.8,6.9,51,0.00,CLR,SCT,0.00,0.0,WeatherDisplay:10.37,2013-09-17 01:38:00,
2013-09-16 20:43:00,60.6,42.9,30.12,ESE,112,2.4,4.3,52,0.00,CLR,SCT,0.00,0.0,WeatherDisplay:10.37,2013-09-17 01:43:00,
2013-09-16 20:48:00,60.4,43.2,30.12,ESE,112,2.6,3.5,53,0.00,CLR,SCT,0.00,0.0,WeatherDisplay:10.37,2013-09-17 01:48:00,
2013-09-16 20:53:00,60.3,43.5,30.12,NNE,22,3.1,5.8,54,0.00,CLR,SCT,0.00,0.0,WeatherDisplay:10.37,2013-09-17 01:53:00,
2013-09-16 20:58:00,60.1,43.9,30.12,ESE,112,3.6,5.8,55,0.00,CLR,SCT,0.00,0.0,WeatherDisplay:10.37,2013-09-17 01:58:00,
2013-09-16 21:03:00,59.9,44.2,30.12,ESE,112,3.1,5.8,56,0.00,CLR,SCT,0.00,0.0,WeatherDisplay:10.37,2013-09-17 02:03:00,
2013-09-16 21:08:00,59.9,44.2,30.12,ESE,112,2.9,4.6,56,0.00,CLR,SCT,0.00,0.0,WeatherDisplay:10.37,2013-09-17 02:08:00,
2013-09-16 21:13:00,59.9,44.6,30.12,ESE,112,2.2,4.6,57,0.00,CLR,SCT,0.00,0.0,WeatherDisplay:10.37,2013-09-17 02:13:00,
2013-09-16 21:18:00,59.7,44.5,30.12,ESE,112,3.3,4.6,57,0.00,CLR,SCT,0.00,0.0,WeatherDisplay:10.37,2013-09-17 02:18:00,
2013-09-16 21:23:00,59.5,44.3,30.12,ESE,112,2.6,3.5,57,0.00,CLR,SCT,0.00,0.0,WeatherDisplay:10.37,2013-09-17 02:23:00,
2013-09-16 21:28:00,59.4,44.6,30.15,ESE,112,2.9,5.8,58,0.00,CLR,SCT,0.00,0.0,WeatherDisplay:10.37,2013-09-17 02:28:00,
2013-09-16 21:33:00,59.2,46.2,30.15,ESE,112,2.4,3.5,62,0.00,CLR,SCT,0.00,0.0,WeatherDisplay:10.37,2013-09-17 02:33:00,
2013-09-16 21:38:00,59.0,45.6,30.15,ESE,112,2.4,3.5,61,0.00,CLR,SCT,0.00,0.0,WeatherDisplay:10.37,2013-09-17 02:38:00,
2013-09-16 21:43:00,58.8,46.2,30.15,ESE,112,2.2,3.8,63,0.00,CLR,SCT,0.00,0.0,WeatherDisplay:10.37,2013-09-17 02:43:00,
2013-09-16 21:48:00,58.6,46.1,30.15,ESE,112,2.4,3.1,63,0.00,CLR,SCT,0.00,0.0,WeatherDisplay:10.37,2013-09-17 02:48:00,
2013-09-16 21:53:00,58.6,46.5,30.15,ENE,68,1.1,3.6,64,0.00,CLR,SCT,0.00,0.0,WeatherDisplay:10.37,2013-09-17 02:53:00,
2013-09-16 21:58:00,58.5,46.7,30.12,ESE,112,2.9,3.5,65,0.00,CLR,SCT,0.00,0.0,WeatherDisplay:10.37,2013-09-17 02:58:00,
2013-09-16 22:03:00,58.5,46.7,30.12,ESE,112,2.0,2.3,65,0.00,CLR,SCT,0.00,0.0,WeatherDisplay:10.37,2013-09-17 03:03:00,
2013-09-16 22:08:00,58.5,47.1,30.12,ESE,112,2.2,2.6,66,0.00,CLR,SCT,0.00,0.0,WeatherDisplay:10.37,2013-09-17 03:08:00,
2013-09-16 22:13:00,58.5,47.1,30.15,ESE,112,2.6,3.5,66,0.00,CLR,SCT,0.00,0.0,WeatherDisplay:10.37,2013-09-17 03:13:00,
2013-09-16 22:18:00,58.5,47.5,30.15,ENE,68,2.0,2.3,67,0.00,CLR,SCT,0.00,0.0,WeatherDisplay:10.37,2013-09-17 03:18:00,
2013-09-16 22:23:00,58.5,47.5,30.15,ESE,112,2.2,2.3,67,0.00,CLR,SCT,0.00,0.0,WeatherDisplay:10.37,2013-09-17 03:23:00,
2013-09-16 22:28:00,58.5,47.9,30.12,ESE,112,2.0,3.6,68,0.00,CLR,SCT,0.00,0.0,WeatherDisplay:10.37,2013-09-17 03:28:00,
2013-09-16 22:33:00,58.5,47.9,30.12,ESE,112,2.6,3.5,68,0.00,CLR,SCT,0.00,0.0,WeatherDisplay:10.37,2013-09-17 03:33:00,
2013-09-16 22:38:00,58.6,48.1,30.12,ENE,68,2.9,4.6,68,0.00,CLR,SCT,0.00,0.0,WeatherDisplay:10.37,2013-09-17 03:38:00,
2013-09-16 22:43:00,58.6,48.5,30.12,East,90,2.6,3.5,69,0.00,CLR,SCT,0.00,0.0,WeatherDisplay:10.37,2013-09-17 03:43:00,
2013-09-16 22:48:00,58.6,48.5,30.12,ESE,112,2.9,5.8,69,0.00,CLR,SCT,0.00,0.0,WeatherDisplay:10.37,2013-09-17 03:48:00,
2013-09-16 22:53:00,58.6,48.5,30.12,ESE,112,2.9,3.6,69,0.00,CLR,SCT,0.00,0.0,WeatherDisplay:10.37,2013-09-17 03:53:00,
2013-09-16 22:58:00,58.6,48.5,30.12,East,90,3.6,3.6,69,0.00,CLR,SCT,0.00,0.0,WeatherDisplay:10.37,2013-09-17 03:58:00,
2013-09-16 23:01:00,58.8,48.7,30.12,ESE,112,3.1,4.6,69,0.00,CLR,SCT,0.00,0.0,WeatherDisplay:10.37,2013-09-17 04:01:00,
2013-09-16 23:02:00,58.6,48.5,30.12,ESE,112,2.6,3.5,69,0.00,CLR,SCT,0.00,0.0,WeatherDisplay:10.37,2013-09-17 04:02:00,
2013-09-16 23:03:00,58.8,48.7,30.12,East,90,2.2,4.6,69,0.00,CLR,SCT,0.00,0.0,WeatherDisplay:10.37,2013-09-17 04:03:00,
2013-09-16 23:08:00,58.8,48.7,30.12,ESE,112,2.2,2.3,69,0.00,CLR,SCT,0.00,0.0,WeatherDisplay:10.37,2013-09-17 04:08:00,
2013-09-16 23:13:00,58.8,48.3,30.12,East,90,3.3,4.6,68,0.00,CLR,SCT,0.00,0.0,WeatherDisplay:10.37,2013-09-17 04:13:00,
2013-09-16 23:18:00,58.8,48.7,30.12,ESE,112,3.3,4.0,69,0.00,CLR,SCT,0.00,0.0,WeatherDisplay:10.37,2013-09-17 04:18:00,
2013-09-16 23:23:00,58.6,48.1,30.12,SSE,158,2.2,4.6,68,0.00,CLR,SCT,0.00,0.0,WeatherDisplay:10.37,2013-09-17 04:23:00,
2013-09-16 23:28:00,58.8,48.7,30.12,ESE,112,2.9,4.7,69,0.00,CLR,SCT,0.00,0.0,WeatherDisplay:10.37,2013-09-17 04:28:00,
2013-09-16 23:33:00,58.8,48.7,30.12,SSE,158,3.1,3.5,69,0.00,CLR,SCT,0.00,0.0,WeatherDisplay:10.37,2013-09-17 04:33:00,
2013-09-16 23:38:00,58.8,48.7,30.12,East,90,2.2,3.5,69,0.00,CLR,SCT,0.00,0.0,WeatherDisplay:10.37,2013-09-17 04:38:00,
2013-09-16 23:43:00,58.8,48.7,30.12,SE,135,3.3,4.7,69,0.00,CLR,SCT,0.00,0.0,WeatherDisplay:10.37,2013-09-17 04:43:00,
2013-09-16 23:48:00,58.8,48.7,30.12,SSE,158,3.3,3.5,69,0.00,CLR,SCT,0.00,0.0,WeatherDisplay:10.37,2013-09-17 04:48:00,
2013-09-16 23:53:00,58.8,48.7,30.12,SE,135,3.6,4.3,69,0.00,CLR,SCT,0.00,0.0,WeatherDisplay:10.37,2013-09-17 04:53:00,
2013-09-16 23:58:00,58.8,49.1,30.12,ESE,112,3.3,4.6,70,0.00,CLR,SCT,0.00,0.0,WeatherDisplay:10.37,2013-09-17 04:58:00,